Location: Mesa Verde
(33.6055°N, 114.7275°W)
Time: 08:40:52
(UTC+00:00)

BlueWalker 3 - Visible Passes

Search period start: 08 December 2022 00:00
Search period end: 18 December 2022 00:00
Orbit: 501 x 518 km, 53.2° (Epoch: 07 December)

Date Brightness Start Highest point End Pass type
(mag) Time Alt. Az. Time Alt. Az. Time Alt. Az.
08 Dec 4.3 01:43:00 10° N 01:43:20 10° NNE 01:43:20 10° NNE visible
09 Dec 4.0 01:24:22 10° N 01:25:45 12° NNE 01:26:07 11° NNE visible
10 Dec 4.0 01:05:45 10° N 01:07:23 12° NNE 01:09:00 10° NE visible
10 Dec 4.1 02:42:42 10° NW 02:43:58 20° NW 02:43:58 20° NW visible
11 Dec 2.5 02:24:17 10° NW 02:27:15 51° NW 02:27:15 51° NW visible
12 Dec 1.8 02:05:51 10° NW 02:09:45 88° SW 02:10:56 43° SE visible
13 Dec 2.0 01:47:26 10° NW 01:51:19 81° SW 01:55:10 10° SE visible
14 Dec 2.1 01:28:59 10° NW 01:32:53 74° SW 01:36:43 10° SE visible
15 Dec 2.3 01:10:34 10° NW 01:14:26 68° SW 01:18:16 10° SE visible
16 Dec 2.6 00:52:07 10° NW 00:55:59 62° SW 00:59:47 10° SSE visible
